Powrót do katalogu

STARLINK-35601

AktywnyŁącznośćVLEO
NORAD 66149·PAYLOAD·🇺🇸 United States

Wystrzelony Oct 25, 2025 z Cape Canaveral Space Force Station

Loading…

Następne Przeloty (najbliższe 24 godziny)

TLE

ŚwieżeSource: CelesTrak SupGP

Epoka: Sep 15, 2026, 02:36 UTC

1 66149C 25240D   26258.10881944 -.00021647  00000+0 -63940-3 0  2581
2 66149  53.1567 260.7047 0001338  93.1280 190.9715 15.34409737    15

Śledź STARLINK-35601 w czasie rzeczywistym z AllMySat

Download on the App Store